{"data":{"norad_id":52788,"intl_designator":"2022-058D","name":"GEESAT-1 04","alt_names":[],"object_type":"PAYLOAD","status":"ACTIVE","operator":null,"country":"PRC","launch_date":"2022-06-02","launch_site_code":"XICLF","launch_vehicle":null,"mission":null,"orbit_class":"UNKNOWN","rcs_meters":null,"size_class":null,"mass_kg":null,"dimensions":null,"purposes":[],"wikipedia_slug":null,"has_3d_model":false,"image_url":null,"decayed_at":null,"tle_current":{"epoch":"2026-09-20T22:50:55.976064Z","epoch_age_seconds":92674,"freshness":"FRESH","line1":"1 52788U 22058D   26263.95203676  .00000838  00000+0  13364-3 0  9992","line2":"2 52788  50.0036 120.7886 0009463 153.5761 206.5661 14.81609376234121","mean_motion":14.81609376,"eccentricity":0.0009463,"inclination_deg":50.0036,"raan_deg":120.7886,"arg_perigee_deg":153.5761,"mean_anomaly_deg":206.5661,"bstar":0.00013364,"rev_number":23412,"period_min":97.191609564976,"perigee_km":617.62235820518,"apogee_km":630.87507341092,"semimajor_km":7002.385715808,"source":"CELESTRAK","updated_at":"2026-09-21T09:00:08.720514Z"}}}